<?xml version="1.0"?>
<gpx xmlns="http://www.topografix.com/GPX/1/1" xmlns:xsi="http://www.w3.org/2001/XMLSchema-instance" version="1.1" creator="GPX RubyGem 1.0.0 -- http://dougfales.github.io/gpx/" xsi:schemaLocation="http://www.topografix.com/GPX/1/1 http://www.topografix.com/GPX/1/1/gpx.xsd">
  <metadata>
    <name/>
    <time>2026-05-10T11:50:22+00:00</time>
    <bound minlat="90.0" minlon="180.0" maxlat="-90.0" maxlon="-180.0"/>
  </metadata>
  <trk>
    <name/>
    <trkseg>
      <trkpt lat="51.478795" lon="7.532998">
        <time>1970-01-01T00:00:00+00:00</time>
        <ele>139.0</ele>
      </trkpt>
      <trkpt lat="51.478929" lon="7.533017">
        <time>1970-01-01T00:00:00+00:00</time>
        <ele>140.0</ele>
      </trkpt>
      <trkpt lat="51.479321" lon="7.533039">
        <time>1970-01-01T00:00:00+00:00</time>
        <ele>141.0</ele>
      </trkpt>
      <trkpt lat="51.479467" lon="7.533082">
        <time>1970-01-01T00:00:00+00:00</time>
        <ele>142.0</ele>
      </trkpt>
      <trkpt lat="51.479738" lon="7.533259">
        <time>1970-01-01T00:00:00+00:00</time>
        <ele>143.0</ele>
      </trkpt>
      <trkpt lat="51.479919" lon="7.533297">
        <time>1970-01-01T00:00:00+00:00</time>
        <ele>143.0</ele>
      </trkpt>
      <trkpt lat="51.479975" lon="7.53363">
        <time>1970-01-01T00:00:00+00:00</time>
        <ele>144.0</ele>
      </trkpt>
      <trkpt lat="51.480015" lon="7.533764">
        <time>1970-01-01T00:00:00+00:00</time>
        <ele>145.0</ele>
      </trkpt>
      <trkpt lat="51.480134" lon="7.53402">
        <time>1970-01-01T00:00:00+00:00</time>
        <ele>146.0</ele>
      </trkpt>
      <trkpt lat="51.480264" lon="7.534259">
        <time>1970-01-01T00:00:00+00:00</time>
        <ele>145.0</ele>
      </trkpt>
      <trkpt lat="51.480117" lon="7.534483">
        <time>1970-01-01T00:00:00+00:00</time>
        <ele>146.0</ele>
      </trkpt>
      <trkpt lat="51.479962" lon="7.534647">
        <time>1970-01-01T00:00:00+00:00</time>
        <ele>147.0</ele>
      </trkpt>
      <trkpt lat="51.479839" lon="7.534695">
        <time>1970-01-01T00:00:00+00:00</time>
        <ele>147.0</ele>
      </trkpt>
      <trkpt lat="51.479687" lon="7.534661">
        <time>1970-01-01T00:00:00+00:00</time>
        <ele>146.0</ele>
      </trkpt>
      <trkpt lat="51.479551" lon="7.534541">
        <time>1970-01-01T00:00:00+00:00</time>
        <ele>145.0</ele>
      </trkpt>
      <trkpt lat="51.479501" lon="7.534538">
        <time>1970-01-01T00:00:00+00:00</time>
        <ele>145.0</ele>
      </trkpt>
      <trkpt lat="51.47945" lon="7.534577">
        <time>1970-01-01T00:00:00+00:00</time>
        <ele>145.0</ele>
      </trkpt>
      <trkpt lat="51.479612" lon="7.534769">
        <time>1970-01-01T00:00:00+00:00</time>
        <ele>147.0</ele>
      </trkpt>
      <trkpt lat="51.479756" lon="7.53495">
        <time>1970-01-01T00:00:00+00:00</time>
        <ele>148.0</ele>
      </trkpt>
      <trkpt lat="51.479934" lon="7.535137">
        <time>1970-01-01T00:00:00+00:00</time>
        <ele>149.0</ele>
      </trkpt>
      <trkpt lat="51.479934" lon="7.535137">
        <time>1970-01-01T00:00:00+00:00</time>
        <ele>149.0</ele>
      </trkpt>
      <trkpt lat="51.479756" lon="7.53495">
        <time>1970-01-01T00:00:00+00:00</time>
        <ele>148.0</ele>
      </trkpt>
      <trkpt lat="51.479612" lon="7.534769">
        <time>1970-01-01T00:00:00+00:00</time>
        <ele>147.0</ele>
      </trkpt>
      <trkpt lat="51.47945" lon="7.534577">
        <time>1970-01-01T00:00:00+00:00</time>
        <ele>145.0</ele>
      </trkpt>
      <trkpt lat="51.479501" lon="7.534538">
        <time>1970-01-01T00:00:00+00:00</time>
        <ele>145.0</ele>
      </trkpt>
      <trkpt lat="51.479551" lon="7.534541">
        <time>1970-01-01T00:00:00+00:00</time>
        <ele>145.0</ele>
      </trkpt>
      <trkpt lat="51.479687" lon="7.534661">
        <time>1970-01-01T00:00:00+00:00</time>
        <ele>146.0</ele>
      </trkpt>
      <trkpt lat="51.479839" lon="7.534695">
        <time>1970-01-01T00:00:00+00:00</time>
        <ele>147.0</ele>
      </trkpt>
      <trkpt lat="51.479962" lon="7.534647">
        <time>1970-01-01T00:00:00+00:00</time>
        <ele>147.0</ele>
      </trkpt>
      <trkpt lat="51.480117" lon="7.534483">
        <time>1970-01-01T00:00:00+00:00</time>
        <ele>146.0</ele>
      </trkpt>
      <trkpt lat="51.480264" lon="7.534259">
        <time>1970-01-01T00:00:00+00:00</time>
        <ele>145.0</ele>
      </trkpt>
      <trkpt lat="51.480134" lon="7.53402">
        <time>1970-01-01T00:00:00+00:00</time>
        <ele>146.0</ele>
      </trkpt>
      <trkpt lat="51.480015" lon="7.533764">
        <time>1970-01-01T00:00:00+00:00</time>
        <ele>145.0</ele>
      </trkpt>
      <trkpt lat="51.479975" lon="7.53363">
        <time>1970-01-01T00:00:00+00:00</time>
        <ele>144.0</ele>
      </trkpt>
      <trkpt lat="51.479919" lon="7.533297">
        <time>1970-01-01T00:00:00+00:00</time>
        <ele>143.0</ele>
      </trkpt>
      <trkpt lat="51.479738" lon="7.533259">
        <time>1970-01-01T00:00:00+00:00</time>
        <ele>143.0</ele>
      </trkpt>
      <trkpt lat="51.479467" lon="7.533082">
        <time>1970-01-01T00:00:00+00:00</time>
        <ele>142.0</ele>
      </trkpt>
      <trkpt lat="51.479321" lon="7.533039">
        <time>1970-01-01T00:00:00+00:00</time>
        <ele>141.0</ele>
      </trkpt>
      <trkpt lat="51.478929" lon="7.533017">
        <time>1970-01-01T00:00:00+00:00</time>
        <ele>140.0</ele>
      </trkpt>
      <trkpt lat="51.478795" lon="7.532998">
        <time>1970-01-01T00:00:00+00:00</time>
        <ele>139.0</ele>
      </trkpt>
    </trkseg>
  </trk>
</gpx>
